星链-34914 (STARLINK-34914)

导读 | 豆包AI

STARLINK-34680是美国太空探索技术公司SpaceX星链星座中的一颗卫星,于2025年8月28日由美国发射升空,星链星座旨在为全球用户提供高速卫星互联网服务,该卫星入轨后将进一步扩展星链网络的覆盖范围与服务能力,助力全球互联网接入服务的普及。

Basic Information
目录编号:
65356
目录名称:
STARLINK-34680
国际标识:
2025-190F
轨道中心:
EARTH
卫星名称:
星链-34914
卫星全名:
星链-34914 (STARLINK-34914)
卫星状态:
在轨 (已飞行244 天)
发射日期:
2025-08-28 UTC
国别 :
美国 (US)
星等 :
--
Orbit Information
数据来源 国际轨道数据 AOE轨道数据
星历时间 2026-04-29T12:44:09+0800
8小时前
查看轨道信息
2026-04-28T02:00:00+0800
1天前
查看轨道信息
半长轴 6853.362km 6853.236km
偏心率 0.0001015 0.0001033
轨道倾角 53.159° 53.161°
近地点辐角 90.478° 77.320°
升交点赤经 293.892° 300.617°
平近点角 269.633° 225.450°
近地点 474.529km 474.391km
远地点 475.921km 475.807km
周期 94.106分钟 94.103分钟
每日圈数 15.301969 15.302392
Detailed Information
固有亮度:
5
最大亮度:
2.5
卫星平台:
Starlink V1.0
覆盖范围:
全球
运营商:
太空探索技术公司
运营商所在国:
美国
制造商(研发单位):
太空探索技术公司
制造商所在国:
美国
使用方式:
暂无
Satellite Introduction
Starlink 计划是 SpaceX 推出的全球卫星互联网项目,通过发射低轨道卫星,为全球尤其是偏远地区提供高速、低延迟的互联网服务。自 2019 年起,Starlink 已部署数千颗卫星,旨在缩小全球数字鸿沟,推动互联网普及。该项目还为军事、航空等行业提供通信支持,带来广泛经济效益。
2D Orbit Map
3D Orbit Map
Orbit Altitude Analysis Chart
Orbit Inclination Analysis Chart
Orbit Comprehensive Analysis Chart
View Comprehensive Chart